This is the latest recevied weather packets stored in our database for station/object KD8OZS. If no packets are shown the sender has not sent any weather packets the latest 10 day(s).
| Time | Temp. | Humidity | Pressure | Rain* | Wind** | Luminosity | Snow |
|---|---|---|---|---|---|---|---|
| 1787506501 | 22.22° C | 67% | 1007.5 hPa | 0 mm | - | 563 W/m² | - |
| 1787506196 | 21.67° C | 66% | 1007.3 hPa | 0 mm | - | 344 W/m² | - |
| 1787505891 | 21.67° C | 68% | 1007.6 hPa | 0 mm | - | 180 W/m² | - |
| 1787505587 | 21.67° C | 66% | 1007.4 hPa | 0 mm | - | 332 W/m² | - |
| 1787505286 | 22.22° C | 65% | 1007.7 hPa | 0 mm | - | 311 W/m² | - |
| 1787504981 | 22.22° C | 67% | 1007.7 hPa | 0 mm | - | 278 W/m² | - |
| 1787504677 | 22.22° C | 66% | 1007.5 hPa | 0 mm | - | 206 W/m² | - |
| 1787504372 | 22.22° C | 70% | 1007.4 hPa | 0 mm | - | 167 W/m² | - |
| 1787504068 | 22.22° C | 69% | 1007.6 hPa | 0 mm | - | 179 W/m² | - |
| 1787503763 | 21.67° C | 69% | 1007.7 hPa | 0 mm | - | 186 W/m² | - |
| 1787503459 | 22.22° C | 64% | 1007.6 hPa | 0 mm | - | 347 W/m² | - |
| 1787503155 | 21.67° C | 66% | 1007.6 hPa | 0 mm | - | 179 W/m² | - |
| 1787502851 | 21.67° C | 66% | 1007.7 hPa | 0 mm | - | 278 W/m² | - |
| 1787502546 | 21.67° C | 65% | 1007.6 hPa | 0 mm | - | 147 W/m² | - |
| 1787502245 | 21.67° C | 71% | 1007.7 hPa | 0 mm | - | 201 W/m² | - |
| 1787501941 | 21.67° C | 67% | 1007.8 hPa | 0 mm | - | 191 W/m² | - |
| 1787501637 | 21.67° C | 69% | 1008 hPa | 0 mm | - | 172 W/m² | - |
| 1787501332 | 21.11° C | 72% | 1008 hPa | 0 mm | - | 324 W/m² | - |
| 1787501029 | 21.11° C | 67% | 1008.2 hPa | 0 mm | - | 159 W/m² | - |
| 1787500724 | 21.11° C | 68% | 1008.1 hPa | 0 mm | - | 142 W/m² | - |
| 1787500420 | 21.67° C | 71% | 1008.1 hPa | 0 mm | - | 144 W/m² | - |
| 1787500119 | 21.11° C | 69% | 1008 hPa | 0 mm | - | 156 W/m² | - |
| 1787499813 | 21.11° C | 69% | 1008.1 hPa | 0 mm | - | 148 W/m² | - |
| 1787499508 | 21.11° C | 69% | 1008.1 hPa | 0 mm | - | 173 W/m² | - |
| 1787499204 | 20.56° C | 69% | 1008.2 hPa | 0 mm | - | 190 W/m² | - |
* Rain latest hour (hover to see other rain measurements)
** Current wind speed in m/s (hover to see current wind gust speed)